Regional Weather Roundup
Issued by NWS

Home | Current Version | Previous Version | Text Only | Print | Product List | Glossary On
Versions: 1 2 3 4 5 6 7 8 9 10 11 12 13 14 15 16 17 18 19 20 21 22 23 24 25 26 27 28 29 30 31 32 33 34 35 36 37 38 39 40 41 42 43 44 45 46 47 48 49 50
000
ASUS43 KDTX 230910
RWRMI
MICHIGAN HOURLY REGIONAL WEATHER ROUNDUP
NATIONAL WEATHER SERVICE DETROIT/PONTIAC MI
500 AM EDT WED APR 23 2014

NOTE: "FAIR" INDICATES FEW OR NO CLOUDS BELOW 12,000 FEET WITH NO
SIGNIFICANT WEATHER AND/OR OBSTRUCTION TO VISIBILITY.

MIZ047>049-052>055-059>063-066>070-074>076-081>083-231000-
SOUTHEAST LOWER MICHIGAN

CITY           SKY/WX    TMP DP  RH WIND       PRES   REMARKS
ADRIAN         CLOUDY    36  28  73 N9        30.01R
ALMA           CLEAR     32  28  84 NW7       30.05R
ANN ARBOR      CLOUDY    37  27  67 N12       29.99R
BAD AXE        CLOUDY    36  30  79 N16       29.98R
DETROIT CITY   CLOUDY    41  28  60 N12G20    29.98R
DETROIT        CLOUDY    39  29  67 NW8       29.99R
FLINT          CLOUDY    37  28  70 NW10      30.00R
GROSSE ILE     CLOUDY    39  28  65 NW13G18   29.97R
HILLSDALE      CLOUDY    35  28  75 N14       30.01R
HOWELL         CLOUDY    35  28  78 NW12      30.00R

CITY           SKY/WX    TMP DP  RH WIND       PRES   REMARKS
JACKSON        CLOUDY    35  28  75 NW7       30.02R
LAMBERTVILLE   CLEAR     36  30  80 NW5       30.00R
LANSING        CLEAR     32  26  78 NW8       30.04R
LAPEER         NOT AVBL
MASON          CLOUDY    33  28  82 NW10      30.03R
MONROE         CLOUDY    37  30  75 NW7       29.97R
MT. CLEMENS    CLOUDY    38  30  73 NW12G20   29.95R
PONTIAC        CLOUDY    36  28  73 NW13      29.96R
PORT HOPE        N/A     37  31  78 N8        29.96R
PORT HURON     CLOUDY    37  32  81 N14G21    29.96R
TRI CITIES     CLEAR     34  28  79 NW12      30.02R
YPSILANTI      CLOUDY    40  28  62 NW12      29.99R
$$
MIZ043>046-050>051-056>058-064>065-071>073-077>080-231000-
SOUTHWEST LOWER MICHIGAN

CITY           SKY/WX    TMP DP  RH WIND       PRES   REMARKS
BATTLE CREEK   CLEAR     33  26  75 NW8       30.05R
BENTON HARBOR  CLEAR     34  28  79 VRB7      30.09R
BIG RAPIDS     CLEAR     31  26  82 NW6       30.05R
COLDWATER      CLEAR     33  27  80 N8        30.04R
HOLLAND        CLEAR     35  26  69 N5        30.09R
GRAND RAPIDS   CLEAR     33  26  75 NW8       30.07R
KALAMAZOO      CLEAR     33  25  72 N10       30.06R
MARSHALL       CLOUDY    32  26  79 NW3       30.04R
MUSKEGON       CLEAR     34  25  69 N12       30.10R
$$
MIZ016>042-231000-
NORTHERN LOWER MICHIGAN

CITY           SKY/WX    TMP DP  RH WIND       PRES   REMARKS
ALPENA         CLEAR     32  26  78 NW10      30.02R
BEAVER ISLAND  CLEAR     30  28  90 NW3       30.09S
BELLAIRE       CLEAR     30  27  87 CALM      30.08S
CADILLAC       CLEAR     29  27  90 N9        30.04R
CHARLEVOIX     CLEAR     31  29  91 CALM      30.12S
FRANKFORT      SUNNY     32  29  88 N6        30.10S
GAYLORD        CLEAR     29  25  85 VRB6      30.04R
GRAYLING       CLEAR     29  27  90 NW6       30.04S
HARBOR SPRINGS CLEAR     32  27  81 N6        30.07R
HOUGHTON LAKE  CLEAR     30  26  85 N9        30.03R
MANISTEE       CLEAR     34  27  75 N7        30.10S
OSCODA         PTCLDY    35  28  76 NW10      30.00R
PELLSTON       CLEAR     29  24  82 NW7       30.08R
TRAVERSE CITY  CLEAR     33  27  78 NE3       30.08R
$$
MIZ007>008-015-231000-
EASTERN UPPER MICHIGAN

CITY           SKY/WX    TMP DP  RH WIND       PRES   REMARKS
KINROSS        CLEAR     30  27  86 NW12      30.06R
MACKINAC ISLAN CLEAR     30  26  84 N8        30.06S
NEWBERRY       CLEAR     29  23  79 NW5       30.08S
S. S. MARIE    CLEAR     31  22  69 NW5       30.06R
$$
MIZ004>006-011>014-085-231000-
CENTRAL UPPER MICHIGAN

CITY           SKY/WX    TMP DP  RH WIND       PRES   REMARKS
MANISTIQUE     CLEAR     27  25  91 NW6       30.10S
ESCANABA       CLEAR     28  23  80 NW6       30.12S
MENOMINEE      CLEAR     30  25  80 NW7       30.13S
SAWYER-GWINN   CLEAR     26  23  88 NW5       30.11S
$$
MIZ001>003-009>011-084-231000-
WESTERN UPPER MICHIGAN

CITY           SKY/WX    TMP DP  RH WIND       PRES   REMARKS
IRON MOUNTAIN  CLEAR     20  17  88 CALM      30.11F
HOUGHTON       CLEAR     26  22  84 NW6       30.12S
COPPER HARBOR    N/A     30  24  78 W3        30.13S
IRONWOOD       CLEAR     27  21  80 CALM      30.11S
$$

ABBREVIATIONS USED IN REMARKS
   TC - TEMPERATURE IN CELSIUS
  WCI - WIND CHILL INDEX
   HX - HEAT INDEX
  VSB - VISIBILITY




USA.gov is the U.S. government's official web portal to all federal, state and local government web resources and services.